Location: Unspecified
(0.0000°N, 0.0000°E)
Time: 05:32:21
(UTC+00:00)

Envisat - Pass Details

Date: 16 May 2019
Orbit: 764 x 766 km, 98.2° (Epoch: 22 May)

Event Time Altitude Azimuth Distance (km) Brightness Sun altitude
Rises 19:23:36 0° 183° (S) 3,231 6.1 -20.5°
Reaches altitude 10° 19:26:03 10° 191° (S) 2,302 5.4 -21.1°
Maximum altitude 19:30:43 38° 258° (WSW) 1,156 4.3 -22.2°
Drops below altitude 10° 19:35:23 10° 325° (NW) 2,293 6.2 -23.3°
Sets 19:37:49 0° 333° (NNW) 3,215 6.9 -23.9°
